Location: ?
(35.4064°N, 139.3593°E)
Time: 04:33:56
(UTC+00:00)

ATLAS 3B R/B - Pass Details

Date: 18 April 2024
Orbit: 943 x 1251 km, 63.8° (Epoch: 23 May)

Event Time Altitude Azimuth Distance (km) Brightness Sun altitude
Rises 18:51:33 0° 331° (NNW) 4,187 5.8 -14.9°
Reaches altitude 10° 18:54:23 10° 335° (NNW) 3,229 5.2 -14.4°
Maximum altitude 19:02:11 63° 56° (NE) 1,377 3.6 -12.9°
Drops below altitude 10° 19:09:46 10° 136° (SE) 3,151 5.4 -11.5°
Sets 19:12:30 0° 140° (SE) 4,081 6.0 -11.0°
